User: anonymous   Login
Location: Unspecified
(0.0000°N, 0.0000°E)
Time: 22:44:51
(UTC+00:00)
Language:

AEROCUBE 6A - Orbit

View from above orbital plane
View from above orbital plane
View from above satellite
View from above satellite

Ground track
Ground track

The orbit data is extracted from the following two-line orbital elements,

1 40045U 14033AM  17113.92659139 +.00000924 +00000-0 +14167-3 0  9998
2 40045 097.8756 001.1510 0059779 103.9269 256.8598 14.74765202152483
Epoch (UTC): 23 April 2017 22:14:17
Eccentricity: 0.0059779
inclination: 97.8756°
perigee height: 604 km
apogee height: 688 km
right ascension of ascending node: 1.1510°
argument of perigee: 103.9269°
revolutions per day: 14.74765202
mean anomaly at epoch: 256.8598°
orbit number at epoch: 15248

The dashed part of the orbit path shows where the satellite is in the earth's shadow,  

DLR